Regional Weather Roundup
Issued by NWS

Home | Current Version | Previous Version | Text Only | Print | Product List | Glossary Off
Versions: 1 2 3 4 5 6 7 8 9 10 11 12 13 14 15 16 17 18 19 20 21 22 23 24 25 26 27 28

000
ASUS45 KCYS 231410
RWRWY

WYOMING REGIONAL WEATHER ROUNDUP
NATIONAL WEATHER SERVICE CHEYENNE WY
800 AM MDT MON OCT 23 2017

NOTE:  "FAIR" INDICATES FEW OR NO CLOUDS BELOW 12,000 FEET
WITH NO SIGNIFICANT WEATHER AND/OR OBSTRUCTIONS TO VISIBILITY.

WYZ001-231500-
YELLOWSTONE NATIONAL PARK

CITY           SKY/WX    TMP DP  RH WIND       PRES   REMARKS
LK YELLOWSTONE   N/A     25  21  85 W5        30.52S WCI  19
W YELLOWSTONE  NOT AVBL

$$
WYZ002>013-054>058-071-098>099-231500-
NORTHERN WYOMING

CITY           SKY/WX    TMP DP  RH WIND       PRES   REMARKS
JACKSON        FAIR      33  23  66 N9        30.52R WCI  25
CODY           FAIR      44  18  35 VRB7      30.42R
GREYBULL       FAIR      43  21  41 NW10      30.38S
WORLAND        FAIR      35  23  61 SW5       30.41R WCI  31
SHERIDAN       FAIR      42  22  44 NW9       30.36R
BUFFALO        FAIR      44  13  28 NW20G29   30.37R
GILLETTE       FAIR      41  23  48 NW18      30.34R
HULETT         FAIR      41  21  45 W8        30.31R
NEWCASTLE      FAIR      34  21  60 NW9       30.32R WCI  26

$$
WYZ014>020-022>026-101>103-231500-
CENTRAL WYOMING

CITY           SKY/WX    TMP DP  RH WIND       PRES   REMARKS
BIG PINEY      FAIR      36  26  67 N7        30.46R WCI  30
PINEDALE       FAIR      32  27  80 S3        30.48R
DUBOIS         FAIR      32  19  59 NW16G28   30.45R WCI  21
LANDER         FAIR      38  27  64 W9        30.43R WCI  31
RIVERTON       FAIR      38  26  62 S5        30.43R WCI  34
CASPER         CLOUDY    40  17  39 NW5       30.41R
DOUGLAS        CLOUDY    39  28  64 NW9       30.40R WCI  33

$$
WYZ021-027>030-104>119-231500-
SOUTHERN WYOMING

CITY           SKY/WX    TMP DP  RH WIND       PRES   REMARKS
EVANSTON       FAIR      40  32  73 W15       30.55R WCI  32
KEMMERER       CLOUDY    37  30  75 N6        30.52S WCI  33
FORT BRIDGER   FAIR      41  32  71 SW13      30.56R
ROCK SPRINGS   FAIR      41  29  62 W8        30.49R
DIXON          FAIR      42  31  64 SW5       30.50R
RAWLINS        MOCLDY    41  29  62 W8        30.44R
SARATOGA       PTSUNNY   43  32  65 W9        30.46R
LARAMIE        MOCLDY    44  27  51 NW25G31   30.37R
CHEYENNE       CLOUDY    33  29  85 N20G26    30.38R WCI  21
TORRINGTON     CLOUDY    46  20  35 NW13G22   30.35R
PINE BLUFFS    CLOUDY    34  32  93 N22G30    30.39R WCI  22

$$




USA.gov is the U.S. government's official web portal to all federal, state and local government web resources and services.